owner,sensor,date,latitude,longitude,vertical_datum,wind_speed,wind_to_direction,wind_speed_of_gust,qcFlag 
COMPS,ioos:station:USF.COMPS:SHP:1,2015-10-01T00:00:00Z,30.0600,-84.2910,10.0,3.05,236.69,3.62,'1111122,1111122,1111122' 
COMPS,ioos:station:USF.COMPS:SHP:1,2015-10-01T00:06:00Z,30.0600,-84.2910,10.0,3.13,237.47,3.72,'1111122,1111122,1111122' 
COMPS,ioos:station:USF.COMPS:SHP:1,2015-10-01T00:12:00Z,30.0600,-84.2910,10.0,3.59,234.17,4.21,'1111122,1111122,1111122' 
COMPS,ioos:station:USF.COMPS:SHP:1,2015-10-01T00:18:00Z,30.0600,-84.2910,10.0,3.13,239.47,3.92,'1111122,1111122,1111122' 
COMPS,ioos:station:USF.COMPS:SHP:1,2015-10-01T00:24:00Z,30.0600,-84.2910,10.0,3.15,248.46,3.82,'1111122,1111122,1111122' 
COMPS,ioos:station:USF.COMPS:SHP:1,2015-10-01T00:30:00Z,30.0600,-84.2910,10.0,3.1,250.03,3.72,'1111122,1111122,1111122' 
COMPS,ioos:station:USF.COMPS:SHP:1,2015-10-01T00:36:00Z,30.0600,-84.2910,10.0,2.91,252.54,3.43,'1111122,1111122,1111122' 
COMPS,ioos:station:USF.COMPS:SHP:1,2015-10-01T00:42:00Z,30.0600,-84.2910,10.0,2.98,252.3,3.72,'1111122,1111122,1111122' 
COMPS,ioos:station:USF.COMPS:SHP:1,2015-10-01T00:48:00Z,30.0600,-84.2910,10.0,2.53,248.77,3.43,'1111122,1111122,1111122' 
COMPS,ioos:station:USF.COMPS:SHP:1,2015-10-01T00:54:00Z,30.0600,-84.2910,10.0,2.74,244.22,3.23,'1111122,1111122,1111122' 
COMPS,ioos:station:USF.COMPS:SHP:1,2015-10-01T01:00:00Z,30.0600,-84.2910,10.0,2.45,238.78,3.03,'1111122,1111122,1111122' 
COMPS,ioos:station:USF.COMPS:SHP:1,2015-10-01T01:06:00Z,30.0600,-84.2910,10.0,2.31,231.32,2.84,'1111122,1111122,1111122' 
COMPS,ioos:station:USF.COMPS:SHP:1,2015-10-01T01:12:00Z,30.0600,-84.2910,10.0,2.05,230.87,2.74,'1111122,1111122,1111122' 
COMPS,ioos:station:USF.COMPS:SHP:1,2015-10-01T01:18:00Z,30.0600,-84.2910,10.0,2.58,232.94,3.33,'1111122,1111122,1111122' 
COMPS,ioos:station:USF.COMPS:SHP:1,2015-10-01T01:24:00Z,30.0600,-84.2910,10.0,1.96,244.8,2.45,'1111122,1111122,1111122' 
COMPS,ioos:station:USF.COMPS:SHP:1,2015-10-01T01:30:00Z,30.0600,-84.2910,10.0,2.52,251.36,3.13,'1111122,1111122,1111122' 
COMPS,ioos:station:USF.COMPS:SHP:1,2015-10-01T01:36:00Z,30.0600,-84.2910,10.0,2.37,261.14,3.03,'1111122,1111122,1111122' 
COMPS,ioos:station:USF.COMPS:SHP:1,2015-10-01T01:42:00Z,30.0600,-84.2910,10.0,2.92,269.0,3.62,'1111122,1111122,1111122' 
COMPS,ioos:station:USF.COMPS:SHP:1,2015-10-01T01:48:00Z,30.0600,-84.2910,10.0,3.2,270.93,4.41,'1111122,1111122,1111122' 
COMPS,ioos:station:USF.COMPS:SHP:1,2015-10-01T01:54:00Z,30.0600,-84.2910,10.0,3.27,268.83,4.31,'1111122,1111122,1111122' 
COMPS,ioos:station:USF.COMPS:SHP:1,2015-10-01T03:00:00Z,30.0600,-84.2910,10.0,2.29,298.47,3.33,'1111122,1111122,1111122' 
COMPS,ioos:station:USF.COMPS:SHP:1,2015-10-01T03:06:00Z,30.0600,-84.2910,10.0,2.21,301.8,3.13,'1111122,1111122,1111122' 
COMPS,ioos:station:USF.COMPS:SHP:1,2015-10-01T03:12:00Z,30.0600,-84.2910,10.0,2.63,313.67,3.72,'1111122,1111122,1111122' 
COMPS,ioos:station:USF.COMPS:SHP:1,2015-10-01T03:18:00Z,30.0600,-84.2910,10.0,2.33,312.33,3.43,'1111122,1111122,1111122' 
COMPS,ioos:station:USF.COMPS:SHP:1,2015-10-01T03:24:00Z,30.0600,-84.2910,10.0,2.33,316.42,3.33,'1111122,1111122,1111122' 
COMPS,ioos:station:USF.COMPS:SHP:1,2015-10-01T03:30:00Z,30.0600,-84.2910,10.0,2.06,317.08,3.03,'1111122,1111122,1111122' 
COMPS,ioos:station:USF.COMPS:SHP:1,2015-10-01T03:36:00Z,30.0600,-84.2910,10.0,2.29,318.1,3.23,'1111122,1111122,1111122' 
COMPS,ioos:station:USF.COMPS:SHP:1,2015-10-01T03:42:00Z,30.0600,-84.2910,10.0,2.35,311.92,3.33,'1111122,1111122,1111122' 
COMPS,ioos:station:USF.COMPS:SHP:1,2015-10-01T03:48:00Z,30.0600,-84.2910,10.0,2.5,313.46,3.52,'1111122,1111122,1111122' 
COMPS,ioos:station:USF.COMPS:SHP:1,2015-10-01T03:54:00Z,30.0600,-84.2910,10.0,2.34,316.84,3.23,'1111122,1111122,1111122' 
COMPS,ioos:station:USF.COMPS:SHP:1,2015-10-01T04:00:00Z,30.0600,-84.2910,10.0,2.49,321.7,3.33,'1111122,1111122,1111122' 
COMPS,ioos:station:USF.COMPS:SHP:1,2015-10-01T04:06:00Z,30.0600,-84.2910,10.0,1.98,316.0,2.74,'1111122,1111122,1111122' 
COMPS,ioos:station:USF.COMPS:SHP:1,2015-10-01T04:12:00Z,30.0600,-84.2910,10.0,1.74,322.22,2.35,'1111122,1111122,1111122' 
COMPS,ioos:station:USF.COMPS:SHP:1,2015-10-01T04:18:00Z,30.0600,-84.2910,10.0,1.77,327.5,3.03,'1111122,1111122,1111122' 
COMPS,ioos:station:USF.COMPS:SHP:1,2015-10-01T04:24:00Z,30.0600,-84.2910,10.0,1.42,305.11,2.35,'1111122,1111122,1111122' 
COMPS,ioos:station:USF.COMPS:SHP:1,2015-10-01T04:30:00Z,30.0600,-84.2910,10.0,1.63,309.72,2.54,'1111122,1111122,1111122' 
COMPS,ioos:station:USF.COMPS:SHP:1,2015-10-01T04:36:00Z,30.0600,-84.2910,10.0,1.59,313.08,2.25,'1111122,1111122,1111122' 
COMPS,ioos:station:USF.COMPS:SHP:1,2015-10-01T04:42:00Z,30.0600,-84.2910,10.0,1.48,319.53,2.05,'1111122,1111122,1111122' 
COMPS,ioos:station:USF.COMPS:SHP:1,2015-10-01T04:48:00Z,30.0600,-84.2910,10.0,0.46,327.9,1.37,'1111122,1111122,1111122' 
COMPS,ioos:station:USF.COMPS:SHP:1,2015-10-01T04:54:00Z,30.0600,-84.2910,10.0,1.64,329.54,2.25,'1111122,1111122,1111122' 
COMPS,ioos:station:USF.COMPS:SHP:1,2015-10-01T05:00:00Z,30.0600,-84.2910,10.0,2.06,326.6,3.03,'1111122,1111122,1111122' 
COMPS,ioos:station:USF.COMPS:SHP:1,2015-10-01T05:06:00Z,30.0600,-84.2910,10.0,1.78,338.66,2.25,'1111122,1111122,1111122' 
COMPS,ioos:station:USF.COMPS:SHP:1,2015-10-01T05:12:00Z,30.0600,-84.2910,10.0,2.43,334.7,3.33,'1111122,1111122,1111122' 
COMPS,ioos:station:USF.COMPS:SHP:1,2015-10-01T05:18:00Z,30.0600,-84.2910,10.0,2.11,333.11,3.52,'1111122,1111122,1111122' 
COMPS,ioos:station:USF.COMPS:SHP:1,2015-10-01T05:24:00Z,30.0600,-84.2910,10.0,2.59,339.73,3.43,'1111122,1111122,1111122' 
COMPS,ioos:station:USF.COMPS:SHP:1,2015-10-01T05:30:00Z,30.0600,-84.2910,10.0,1.97,342.98,2.74,'1111122,1111122,1111122' 
COMPS,ioos:station:USF.COMPS:SHP:1,2015-10-01T05:36:00Z,30.0600,-84.2910,10.0,1.7,341.35,2.45,'1111122,1111122,1111122' 
COMPS,ioos:station:USF.COMPS:SHP:1,2015-10-01T05:42:00Z,30.0600,-84.2910,10.0,1.49,350.41,2.05,'1111122,1111122,1111122' 
COMPS,ioos:station:USF.COMPS:SHP:1,2015-10-01T05:48:00Z,30.0600,-84.2910,10.0,1.9,344.93,3.13,'1111122,1111122,1111122' 
COMPS,ioos:station:USF.COMPS:SHP:1,2015-10-01T05:54:00Z,30.0600,-84.2910,10.0,1.55,346.17,2.45,'1111122,1111122,1111122' 
COMPS,ioos:station:USF.COMPS:SHP:1,2015-10-01T06:00:00Z,30.0600,-84.2910,10.0,1.47,348.02,2.54,'1111122,1111122,1111122' 
COMPS,ioos:station:USF.COMPS:SHP:1,2015-10-01T06:06:00Z,30.0600,-84.2910,10.0,1.61,353.46,2.74,'1111122,1111122,1111122' 
COMPS,ioos:station:USF.COMPS:SHP:1,2015-10-01T06:12:00Z,30.0600,-84.2910,10.0,1.56,357.22,2.64,'1111122,1111122,1111122' 
COMPS,ioos:station:USF.COMPS:SHP:1,2015-10-01T06:18:00Z,30.0600,-84.2910,10.0,1.44,355.26,2.54,'1111122,1111122,1111122' 
COMPS,ioos:station:USF.COMPS:SHP:1,2015-10-01T06:24:00Z,30.0600,-84.2910,10.0,2.01,353.72,2.84,'1111122,1111122,1111122' 
COMPS,ioos:station:USF.COMPS:SHP:1,2015-10-01T06:30:00Z,30.0600,-84.2910,10.0,2.24,6.77,3.82,'1111122,1111122,1111122' 
COMPS,ioos:station:USF.COMPS:SHP:1,2015-10-01T06:36:00Z,30.0600,-84.2910,10.0,2.25,351.2,3.43,'1111122,1111122,1111122' 
COMPS,ioos:station:USF.COMPS:SHP:1,2015-10-01T06:42:00Z,30.0600,-84.2910,10.0,2.46,358.09,3.52,'1111122,1111122,1111122' 
COMPS,ioos:station:USF.COMPS:SHP:1,2015-10-01T06:48:00Z,30.0600,-84.2910,10.0,2.79,9.25,3.72,'1111122,1111122,1111122' 
COMPS,ioos:station:USF.COMPS:SHP:1,2015-10-01T06:54:00Z,30.0600,-84.2910,10.0,3.05,358.63,3.92,'1111122,1111122,1111122' 
COMPS,ioos:station:USF.COMPS:SHP:1,2015-10-01T07:00:00Z,30.0600,-84.2910,10.0,3.33,0.65,4.7,'1111122,1111122,1111122' 
COMPS,ioos:station:USF.COMPS:SHP:1,2015-10-01T07:06:00Z,30.0600,-84.2910,10.0,3.39,355.0,4.5,'1111122,1111122,1111122' 
COMPS,ioos:station:USF.COMPS:SHP:1,2015-10-01T07:12:00Z,30.0600,-84.2910,10.0,3.5,349.28,4.9,'1111122,1111122,1111122' 
COMPS,ioos:station:USF.COMPS:SHP:1,2015-10-01T07:18:00Z,30.0600,-84.2910,10.0,3.44,348.0,5.68,'1111122,1111122,1111122' 
COMPS,ioos:station:USF.COMPS:SHP:1,2015-10-01T07:24:00Z,30.0600,-84.2910,10.0,3.59,352.8,5.09,'1111122,1111122,1111122' 
COMPS,ioos:station:USF.COMPS:SHP:1,2015-10-01T07:30:00Z,30.0600,-84.2910,10.0,3.41,356.17,5.39,'1111122,1111122,1111122' 
COMPS,ioos:station:USF.COMPS:SHP:1,2015-10-01T07:36:00Z,30.0600,-84.2910,10.0,3.32,355.74,4.6,'1111122,1111122,1111122' 
COMPS,ioos:station:USF.COMPS:SHP:1,2015-10-01T07:42:00Z,30.0600,-84.2910,10.0,3.59,350.73,5.58,'1111122,1111122,1111122' 
COMPS,ioos:station:USF.COMPS:SHP:1,2015-10-01T07:48:00Z,30.0600,-84.2910,10.0,3.35,354.95,5.19,'1111122,1111122,1111122' 
COMPS,ioos:station:USF.COMPS:SHP:1,2015-10-01T07:54:00Z,30.0600,-84.2910,10.0,3.31,351.7,4.9,'1111122,1111122,1111122' 
COMPS,ioos:station:USF.COMPS:SHP:1,2015-10-01T08:00:00Z,30.0600,-84.2910,10.0,3.16,352.01,5.09,'1111122,1111122,1111122' 
COMPS,ioos:station:USF.COMPS:SHP:1,2015-10-01T08:06:00Z,30.0600,-84.2910,10.0,2.91,349.89,4.31,'1111122,1111122,1111122' 
COMPS,ioos:station:USF.COMPS:SHP:1,2015-10-01T08:12:00Z,30.0600,-84.2910,10.0,2.81,355.71,4.01,'1111122,1111122,1111122' 
COMPS,ioos:station:USF.COMPS:SHP:1,2015-10-01T08:18:00Z,30.0600,-84.2910,10.0,2.89,356.44,4.01,'1111122,1111122,1111122' 
COMPS,ioos:station:USF.COMPS:SHP:1,2015-10-01T08:24:00Z,30.0600,-84.2910,10.0,2.83,358.98,4.11,'1111122,1111122,1111122' 
COMPS,ioos:station:USF.COMPS:SHP:1,2015-10-01T08:30:00Z,30.0600,-84.2910,10.0,2.55,359.52,3.52,'1111122,1111122,1111122' 
COMPS,ioos:station:USF.COMPS:SHP:1,2015-10-01T08:36:00Z,30.0600,-84.2910,10.0,2.81,6.97,3.82,'1111122,1111122,1111122' 
COMPS,ioos:station:USF.COMPS:SHP:1,2015-10-01T08:42:00Z,30.0600,-84.2910,10.0,3.0,7.2,3.82,'1111122,1111122,1111122' 
COMPS,ioos:station:USF.COMPS:SHP:1,2015-10-01T08:48:00Z,30.0600,-84.2910,10.0,2.97,4.13,4.21,'1111122,1111122,1111122' 
COMPS,ioos:station:USF.COMPS:SHP:1,2015-10-01T08:54:00Z,30.0600,-84.2910,10.0,2.97,1.21,3.92,'1111122,1111122,1111122' 
COMPS,ioos:station:USF.COMPS:SHP:1,2015-10-01T09:00:00Z,30.0600,-84.2910,10.0,2.84,358.87,4.31,'1111122,1111122,1111122' 
COMPS,ioos:station:USF.COMPS:SHP:1,2015-10-01T09:06:00Z,30.0600,-84.2910,10.0,3.4,353.51,4.41,'1111122,1111122,1111122' 
COMPS,ioos:station:USF.COMPS:SHP:1,2015-10-01T09:12:00Z,30.0600,-84.2910,10.0,2.76,355.9,4.5,'1111122,1111122,1111122' 
COMPS,ioos:station:USF.COMPS:SHP:1,2015-10-01T09:18:00Z,30.0600,-84.2910,10.0,3.02,5.28,4.5,'1111122,1111122,1111122' 
COMPS,ioos:station:USF.COMPS:SHP:1,2015-10-01T09:24:00Z,30.0600,-84.2910,10.0,3.56,3.31,4.41,'1111122,1111122,1111122' 
COMPS,ioos:station:USF.COMPS:SHP:1,2015-10-01T09:30:00Z,30.0600,-84.2910,10.0,2.98,4.98,3.82,'1111122,1111122,1111122' 
COMPS,ioos:station:USF.COMPS:SHP:1,2015-10-01T09:36:00Z,30.0600,-84.2910,10.0,2.75,5.01,3.72,'1111122,1111122,1111122' 
COMPS,ioos:station:USF.COMPS:SHP:1,2015-10-01T09:42:00Z,30.0600,-84.2910,10.0,2.95,5.66,4.21,'1111122,1111122,1111122' 
COMPS,ioos:station:USF.COMPS:SHP:1,2015-10-01T09:48:00Z,30.0600,-84.2910,10.0,2.81,6.4,4.11,'1111122,1111122,1111122' 
COMPS,ioos:station:USF.COMPS:SHP:1,2015-10-01T09:54:00Z,30.0600,-84.2910,10.0,2.69,4.05,3.52,'1111122,1111122,1111122' 
COMPS,ioos:station:USF.COMPS:SHP:1,2015-10-01T10:00:00Z,30.0600,-84.2910,10.0,2.61,354.29,3.52,'1111122,1111122,1111122' 
COMPS,ioos:station:USF.COMPS:SHP:1,2015-10-01T10:06:00Z,30.0600,-84.2910,10.0,2.63,344.11,3.33,'1111122,1111122,1111122' 
COMPS,ioos:station:USF.COMPS:SHP:1,2015-10-01T10:12:00Z,30.0600,-84.2910,10.0,2.84,343.42,3.82,'1111122,1111122,1111122' 
COMPS,ioos:station:USF.COMPS:SHP:1,2015-10-01T10:18:00Z,30.0600,-84.2910,10.0,2.52,347.83,3.92,'1111122,1111122,1111122' 
COMPS,ioos:station:USF.COMPS:SHP:1,2015-10-01T10:24:00Z,30.0600,-84.2910,10.0,1.85,350.59,2.74,'1111122,1111122,1111122' 
COMPS,ioos:station:USF.COMPS:SHP:1,2015-10-01T10:30:00Z,30.0600,-84.2910,10.0,2.11,341.52,2.84,'1111122,1111122,1111122' 
COMPS,ioos:station:USF.COMPS:SHP:1,2015-10-01T10:36:00Z,30.0600,-84.2910,10.0,2.53,339.59,3.33,'1111122,1111122,1111122' 
COMPS,ioos:station:USF.COMPS:SHP:1,2015-10-01T10:42:00Z,30.0600,-84.2910,10.0,2.89,337.78,3.82,'1111122,1111122,1111122' 
COMPS,ioos:station:USF.COMPS:SHP:1,2015-10-01T10:48:00Z,30.0600,-84.2910,10.0,2.76,340.89,4.11,'1111122,1111122,1111122' 
COMPS,ioos:station:USF.COMPS:SHP:1,2015-10-01T10:54:00Z,30.0600,-84.2910,10.0,2.91,345.79,3.82,'1111122,1111122,1111122' 
COMPS,ioos:station:USF.COMPS:SHP:1,2015-10-01T11:00:00Z,30.0600,-84.2910,10.0,3.31,341.68,4.5,'1111122,1111122,1111122' 
COMPS,ioos:station:USF.COMPS:SHP:1,2015-10-01T11:06:00Z,30.0600,-84.2910,10.0,3.2,343.96,4.11,'1111122,1111122,1111122' 
COMPS,ioos:station:USF.COMPS:SHP:1,2015-10-01T11:12:00Z,30.0600,-84.2910,10.0,2.75,356.56,4.01,'1111122,1111122,1111122' 
COMPS,ioos:station:USF.COMPS:SHP:1,2015-10-01T11:18:00Z,30.0600,-84.2910,10.0,2.36,353.86,3.52,'1111122,1111122,1111122' 
COMPS,ioos:station:USF.COMPS:SHP:1,2015-10-01T11:24:00Z,30.0600,-84.2910,10.0,2.56,352.61,4.11,'1111122,1111122,1111122' 
COMPS,ioos:station:USF.COMPS:SHP:1,2015-10-01T11:30:00Z,30.0600,-84.2910,10.0,2.12,349.92,3.13,'1111122,1111122,1111122' 
COMPS,ioos:station:USF.COMPS:SHP:1,2015-10-01T11:36:00Z,30.0600,-84.2910,10.0,2.03,352.14,2.74,'1111122,1111122,1111122' 
COMPS,ioos:station:USF.COMPS:SHP:1,2015-10-01T11:42:00Z,30.0600,-84.2910,10.0,1.88,359.98,2.64,'1111122,1111122,1111122' 
COMPS,ioos:station:USF.COMPS:SHP:1,2015-10-01T11:48:00Z,30.0600,-84.2910,10.0,2.2,357.49,3.33,'1111122,1111122,1111122' 
COMPS,ioos:station:USF.COMPS:SHP:1,2015-10-01T11:54:00Z,30.0600,-84.2910,10.0,2.47,354.74,3.82,'1111122,1111122,1111122' 
COMPS,ioos:station:USF.COMPS:SHP:1,2015-10-01T12:00:00Z,30.0600,-84.2910,10.0,2.39,350.93,3.72,'1111122,1111122,1111122' 
COMPS,ioos:station:USF.COMPS:SHP:1,2015-10-01T12:06:00Z,30.0600,-84.2910,10.0,2.39,352.02,3.62,'1111122,1111122,1111122' 
COMPS,ioos:station:USF.COMPS:SHP:1,2015-10-01T12:12:00Z,30.0600,-84.2910,10.0,3.11,343.2,4.6,'1111122,1111122,1111122' 
COMPS,ioos:station:USF.COMPS:SHP:1,2015-10-01T12:18:00Z,30.0600,-84.2910,10.0,3.08,342.36,4.31,'1111122,1111122,1111122' 
COMPS,ioos:station:USF.COMPS:SHP:1,2015-10-01T12:24:00Z,30.0600,-84.2910,10.0,3.55,343.34,5.39,'1111122,1111122,1111122' 
COMPS,ioos:station:USF.COMPS:SHP:1,2015-10-01T12:30:00Z,30.0600,-84.2910,10.0,4.06,347.73,6.07,'1111122,1111122,1111122' 
COMPS,ioos:station:USF.COMPS:SHP:1,2015-10-01T12:36:00Z,30.0600,-84.2910,10.0,4.08,352.74,5.97,'1111122,1111122,1111122' 
COMPS,ioos:station:USF.COMPS:SHP:1,2015-10-01T12:42:00Z,30.0600,-84.2910,10.0,3.92,355.51,5.58,'1111122,1111122,1111122' 
COMPS,ioos:station:USF.COMPS:SHP:1,2015-10-01T12:48:00Z,30.0600,-84.2910,10.0,4.33,354.12,6.27,'1111122,1111122,1111122' 
COMPS,ioos:station:USF.COMPS:SHP:1,2015-10-01T12:54:00Z,30.0600,-84.2910,10.0,4.12,356.71,6.37,'1111122,1111122,1111122' 
COMPS,ioos:station:USF.COMPS:SHP:1,2015-10-01T13:00:00Z,30.0600,-84.2910,10.0,4.39,359.02,7.25,'1111122,1111122,1111122' 
COMPS,ioos:station:USF.COMPS:SHP:1,2015-10-01T13:06:00Z,30.0600,-84.2910,10.0,4.78,357.6,6.56,'1111122,1111122,1111122' 
COMPS,ioos:station:USF.COMPS:SHP:1,2015-10-01T13:12:00Z,30.0600,-84.2910,10.0,5.05,355.72,7.05,'1111122,1111122,1111122' 
COMPS,ioos:station:USF.COMPS:SHP:1,2015-10-01T13:18:00Z,30.0600,-84.2910,10.0,4.55,353.83,6.37,'1111122,1111122,1111122' 
COMPS,ioos:station:USF.COMPS:SHP:1,2015-10-01T13:24:00Z,30.0600,-84.2910,10.0,4.67,3.37,6.95,'1111122,1111122,1111122' 
COMPS,ioos:station:USF.COMPS:SHP:1,2015-10-01T13:30:00Z,30.0600,-84.2910,10.0,4.74,0.46,6.46,'1111122,1111122,1111122' 
COMPS,ioos:station:USF.COMPS:SHP:1,2015-10-01T13:36:00Z,30.0600,-84.2910,10.0,3.97,0.32,5.48,'1111122,1111122,1111122' 
COMPS,ioos:station:USF.COMPS:SHP:1,2015-10-01T13:42:00Z,30.0600,-84.2910,10.0,4.78,356.89,6.66,'1111122,1111122,1111122' 
COMPS,ioos:station:USF.COMPS:SHP:1,2015-10-01T13:48:00Z,30.0600,-84.2910,10.0,4.83,348.66,6.37,'1111122,1111122,1111122' 
COMPS,ioos:station:USF.COMPS:SHP:1,2015-10-01T13:54:00Z,30.0600,-84.2910,10.0,4.89,3.04,7.25,'1111122,1111122,1111122' 
COMPS,ioos:station:USF.COMPS:SHP:1,2015-10-01T14:00:00Z,30.0600,-84.2910,10.0,4.78,355.81,6.95,'1111122,1111122,1111122' 
COMPS,ioos:station:USF.COMPS:SHP:1,2015-10-01T14:06:00Z,30.0600,-84.2910,10.0,5.12,350.78,7.05,'1111122,1111122,1111122' 
COMPS,ioos:station:USF.COMPS:SHP:1,2015-10-01T14:12:00Z,30.0600,-84.2910,10.0,4.74,350.13,6.95,'1111122,1111122,1111122' 
COMPS,ioos:station:USF.COMPS:SHP:1,2015-10-01T14:18:00Z,30.0600,-84.2910,10.0,5.01,349.93,7.35,'1111122,1111122,1111122' 
COMPS,ioos:station:USF.COMPS:SHP:1,2015-10-01T14:24:00Z,30.0600,-84.2910,10.0,3.99,340.44,6.27,'1111122,1111122,1111122' 
COMPS,ioos:station:USF.COMPS:SHP:1,2015-10-01T14:30:00Z,30.0600,-84.2910,10.0,5.11,333.66,6.66,'1111122,1111122,1111122' 
COMPS,ioos:station:USF.COMPS:SHP:1,2015-10-01T14:36:00Z,30.0600,-84.2910,10.0,3.99,349.77,6.27,'1111122,1111122,1111122' 
COMPS,ioos:station:USF.COMPS:SHP:1,2015-10-01T14:42:00Z,30.0600,-84.2910,10.0,4.35,2.38,6.56,'1111122,1111122,1111122' 
COMPS,ioos:station:USF.COMPS:SHP:1,2015-10-01T14:48:00Z,30.0600,-84.2910,10.0,4.88,338.43,5.87,'1111122,1111122,1111122' 
COMPS,ioos:station:USF.COMPS:SHP:1,2015-10-01T14:54:00Z,30.0600,-84.2910,10.0,5.19,0.37,6.76,'1111122,1111122,1111122' 
COMPS,ioos:station:USF.COMPS:SHP:1,2015-10-01T15:00:00Z,30.0600,-84.2910,10.0,4.54,1.16,6.07,'1111122,1111122,1111122' 
COMPS,ioos:station:USF.COMPS:SHP:1,2015-10-01T15:06:00Z,30.0600,-84.2910,10.0,4.48,357.55,6.17,'1111122,1111122,1111122' 
COMPS,ioos:station:USF.COMPS:SHP:1,2015-10-01T15:12:00Z,30.0600,-84.2910,10.0,4.37,1.5,6.17,'1111122,1111122,1111122' 
COMPS,ioos:station:USF.COMPS:SHP:1,2015-10-01T15:18:00Z,30.0600,-84.2910,10.0,4.15,337.96,6.46,'1111122,1111122,1111122' 
COMPS,ioos:station:USF.COMPS:SHP:1,2015-10-01T15:24:00Z,30.0600,-84.2910,10.0,4.7,336.43,5.97,'1111122,1111122,1111122' 
COMPS,ioos:station:USF.COMPS:SHP:1,2015-10-01T15:30:00Z,30.0600,-84.2910,10.0,4.41,334.29,5.87,'1111122,1111122,1111122' 
COMPS,ioos:station:USF.COMPS:SHP:1,2015-10-01T15:36:00Z,30.0600,-84.2910,10.0,3.95,331.79,5.87,'1111122,1111122,1111122' 
COMPS,ioos:station:USF.COMPS:SHP:1,2015-10-01T15:42:00Z,30.0600,-84.2910,10.0,4.56,348.46,5.97,'1111122,1111122,1111122' 
COMPS,ioos:station:USF.COMPS:SHP:1,2015-10-01T15:48:00Z,30.0600,-84.2910,10.0,4.04,343.37,6.95,'1111122,1111122,1111122' 
COMPS,ioos:station:USF.COMPS:SHP:1,2015-10-01T15:54:00Z,30.0600,-84.2910,10.0,3.65,355.29,5.29,'1111122,1111122,1111122' 
COMPS,ioos:station:USF.COMPS:SHP:1,2015-10-01T16:00:00Z,30.0600,-84.2910,10.0,3.95,348.13,5.39,'1111122,1111122,1111122' 
COMPS,ioos:station:USF.COMPS:SHP:1,2015-10-01T16:06:00Z,30.0600,-84.2910,10.0,3.07,20.17,4.41,'1111122,1111122,1111122' 
COMPS,ioos:station:USF.COMPS:SHP:1,2015-10-01T16:12:00Z,30.0600,-84.2910,10.0,2.73,4.26,4.11,'1111122,1111122,1111122' 
COMPS,ioos:station:USF.COMPS:SHP:1,2015-10-01T16:18:00Z,30.0600,-84.2910,10.0,2.65,7.27,4.01,'1111122,1111122,1111122' 
COMPS,ioos:station:USF.COMPS:SHP:1,2015-10-01T16:24:00Z,30.0600,-84.2910,10.0,3.14,0.46,4.31,'1111122,1111122,1111122' 
COMPS,ioos:station:USF.COMPS:SHP:1,2015-10-01T16:30:00Z,30.0600,-84.2910,10.0,2.45,13.92,4.6,'1111122,1111122,1111122' 
COMPS,ioos:station:USF.COMPS:SHP:1,2015-10-01T16:36:00Z,30.0600,-84.2910,10.0,2.31,337.38,3.72,'1111122,1111122,1111122' 
COMPS,ioos:station:USF.COMPS:SHP:1,2015-10-01T16:42:00Z,30.0600,-84.2910,10.0,2.31,346.6,4.21,'1111122,1111122,1111122' 
COMPS,ioos:station:USF.COMPS:SHP:1,2015-10-01T16:48:00Z,30.0600,-84.2910,10.0,2.83,347.72,5.29,'1111122,1111122,1111122' 
COMPS,ioos:station:USF.COMPS:SHP:1,2015-10-01T16:54:00Z,30.0600,-84.2910,10.0,2.89,334.63,3.92,'1111122,1111122,1111122' 
COMPS,ioos:station:USF.COMPS:SHP:1,2015-10-01T17:00:00Z,30.0600,-84.2910,10.0,2.0,356.43,3.13,'1111122,1111122,1111122' 
COMPS,ioos:station:USF.COMPS:SHP:1,2015-10-01T17:06:00Z,30.0600,-84.2910,10.0,1.63,345.0,2.64,'1111122,1111122,1111122' 
COMPS,ioos:station:USF.COMPS:SHP:1,2015-10-01T17:12:00Z,30.0600,-84.2910,10.0,2.83,347.68,5.19,'1111122,1111122,1111122' 
COMPS,ioos:station:USF.COMPS:SHP:1,2015-10-01T17:18:00Z,30.0600,-84.2910,10.0,2.35,350.09,3.33,'1111122,1111122,1111122' 
COMPS,ioos:station:USF.COMPS:SHP:1,2015-10-01T17:24:00Z,30.0600,-84.2910,10.0,1.48,5.87,3.23,'1111122,1111122,1111122' 
COMPS,ioos:station:USF.COMPS:SHP:1,2015-10-01T17:30:00Z,30.0600,-84.2910,10.0,2.87,0.67,4.9,'1111122,1111122,1111122' 
COMPS,ioos:station:USF.COMPS:SHP:1,2015-10-01T17:36:00Z,30.0600,-84.2910,10.0,1.71,335.77,3.03,'1111122,1111122,1111122' 
COMPS,ioos:station:USF.COMPS:SHP:1,2015-10-01T17:42:00Z,30.0600,-84.2910,10.0,3.23,334.65,4.6,'1111122,1111122,1111122' 
COMPS,ioos:station:USF.COMPS:SHP:1,2015-10-01T17:48:00Z,30.0600,-84.2910,10.0,2.45,327.17,3.33,'1111122,1111122,1111122' 
COMPS,ioos:station:USF.COMPS:SHP:1,2015-10-01T17:54:00Z,30.0600,-84.2910,10.0,2.22,3.21,3.43,'1111122,1111122,1111122' 
COMPS,ioos:station:USF.COMPS:SHP:1,2015-10-01T18:00:00Z,30.0600,-84.2910,10.0,2.2,358.72,3.43,'1111122,1111122,1111122' 
COMPS,ioos:station:USF.COMPS:SHP:1,2015-10-01T18:06:00Z,30.0600,-84.2910,10.0,3.56,2.52,5.19,'1111122,1111122,1111122' 
COMPS,ioos:station:USF.COMPS:SHP:1,2015-10-01T18:12:00Z,30.0600,-84.2910,10.0,1.54,0.81,3.33,'1111122,1111122,1111122' 
COMPS,ioos:station:USF.COMPS:SHP:1,2015-10-01T18:18:00Z,30.0600,-84.2910,10.0,1.38,323.09,3.52,'1111122,1111122,1111122' 
COMPS,ioos:station:USF.COMPS:SHP:1,2015-10-01T18:24:00Z,30.0600,-84.2910,10.0,2.24,336.03,3.72,'1111122,1111122,1111122' 
COMPS,ioos:station:USF.COMPS:SHP:1,2015-10-01T18:30:00Z,30.0600,-84.2910,10.0,2.58,320.87,4.21,'1111122,1111122,1111122' 
COMPS,ioos:station:USF.COMPS:SHP:1,2015-10-01T18:36:00Z,30.0600,-84.2910,10.0,2.07,319.72,4.21,'1111122,1111122,1111122' 
COMPS,ioos:station:USF.COMPS:SHP:1,2015-10-01T18:42:00Z,30.0600,-84.2910,10.0,3.43,330.86,5.48,'1111122,1111122,1111122' 
COMPS,ioos:station:USF.COMPS:SHP:1,2015-10-01T18:48:00Z,30.0600,-84.2910,10.0,3.49,332.96,5.58,'1111122,1111122,1111122' 
COMPS,ioos:station:USF.COMPS:SHP:1,2015-10-01T18:54:00Z,30.0600,-84.2910,10.0,3.83,311.29,5.68,'1111122,1111122,1111122' 
COMPS,ioos:station:USF.COMPS:SHP:1,2015-10-01T19:00:00Z,30.0600,-84.2910,10.0,4.3,311.55,6.37,'1111122,1111122,1111122' 
COMPS,ioos:station:USF.COMPS:SHP:1,2015-10-01T19:06:00Z,30.0600,-84.2910,10.0,2.85,308.58,4.21,'1111122,1111122,1111122' 
COMPS,ioos:station:USF.COMPS:SHP:1,2015-10-01T19:12:00Z,30.0600,-84.2910,10.0,3.73,312.75,5.78,'1111122,1111122,1111122' 
COMPS,ioos:station:USF.COMPS:SHP:1,2015-10-01T19:18:00Z,30.0600,-84.2910,10.0,3.86,293.97,6.07,'1111122,1111122,1111122' 
COMPS,ioos:station:USF.COMPS:SHP:1,2015-10-01T19:24:00Z,30.0600,-84.2910,10.0,4.17,328.73,6.17,'1111122,1111122,1111122' 
COMPS,ioos:station:USF.COMPS:SHP:1,2015-10-01T19:30:00Z,30.0600,-84.2910,10.0,4.55,314.97,6.07,'1111122,1111122,1111122' 
COMPS,ioos:station:USF.COMPS:SHP:1,2015-10-01T19:36:00Z,30.0600,-84.2910,10.0,4.0,303.1,6.07,'1111122,1111122,1111122' 
COMPS,ioos:station:USF.COMPS:SHP:1,2015-10-01T19:42:00Z,30.0600,-84.2910,10.0,4.86,305.89,6.85,'1111122,1111122,1111122' 
COMPS,ioos:station:USF.COMPS:SHP:1,2015-10-01T19:48:00Z,30.0600,-84.2910,10.0,3.85,318.61,5.58,'1111122,1111122,1111122' 
COMPS,ioos:station:USF.COMPS:SHP:1,2015-10-01T19:54:00Z,30.0600,-84.2910,10.0,4.26,320.22,6.76,'1111122,1111122,1111122' 
COMPS,ioos:station:USF.COMPS:SHP:1,2015-10-01T20:00:00Z,30.0600,-84.2910,10.0,4.75,317.43,6.46,'1111122,1111122,1111122' 
COMPS,ioos:station:USF.COMPS:SHP:1,2015-10-01T20:06:00Z,30.0600,-84.2910,10.0,4.73,325.43,6.37,'1111122,1111122,1111122' 
COMPS,ioos:station:USF.COMPS:SHP:1,2015-10-01T20:12:00Z,30.0600,-84.2910,10.0,4.29,329.83,5.78,'1111122,1111122,1111122' 
COMPS,ioos:station:USF.COMPS:SHP:1,2015-10-01T20:18:00Z,30.0600,-84.2910,10.0,3.93,337.37,5.09,'1111122,1111122,1111122' 
COMPS,ioos:station:USF.COMPS:SHP:1,2015-10-01T20:24:00Z,30.0600,-84.2910,10.0,4.68,343.32,7.44,'1111122,1111122,1111122' 
COMPS,ioos:station:USF.COMPS:SHP:1,2015-10-01T20:30:00Z,30.0600,-84.2910,10.0,5.06,339.37,7.15,'1111122,1111122,1111122' 